Terug naar catalogus

SCOUT A R/B

ActiefPO
NORAD 2811·ROCKET BODY·🇺🇸 United States

Gelanceerd May 18, 1967 vanaf Vandenberg Space Force Base

Loading…

Volgende Passages (komende 24 uur)

TLE

VersSource: Space-Track

Epoch: Sep 14, 2026, 05:09 UTC

1 02811U 67048B   26257.21464561  .00000072  00000-0  97682-4 0  9993
2 02811  89.6838 348.0249 0021488 101.7571 287.0132 13.49340863918519

Volg SCOUT A R/B in realtime met AllMySat

Download on the App Store